Location: ??????
(38.5153°N, 23.0340°E)
Time: 13:35:44
(UTC+00:00)

Cosmos 1980 Rocket - Pass Details

Date: 13 December 2025
Orbit: 830 x 847 km, 71.0° (Epoch: 17 January)

Event Time Altitude Azimuth Distance (km) Brightness Sun altitude
Rises 15:52:25 0° 196° (SSW) 3,385 5.9 -8.7°
Reaches altitude 10° 15:54:52 10° 194° (SSW) 2,452 5.2 -9.2°
Maximum altitude 16:00:28 75° 110° (ESE) 872 2.2 -10.2°
Drops below altitude 10° 16:06:06 10° 26° (NNE) 2,456 4.2 -11.2°
Enters shadow 16:07:20 - 25° (NNE) 2,926 4.6 -11.4°
